TimePDT,TemperatureF,Dew PointF,Humidity,Sea Level PressureIn,VisibilityMPH,Wind Direction,Wind SpeedMPH,Gust SpeedMPH,PrecipitationIn,Events,Conditions,WindDirDegrees,DateUTC
12:53 AM,54.0,41.0,62,30.11,10.0,SSW,11.5,-,N/A,,Clear,200,2013-04-03 07:53:00
1:53 AM,54.0,41.0,62,30.12,10.0,South,9.2,-,N/A,,Clear,170,2013-04-03 08:53:00
2:53 AM,52.0,41.0,66,30.12,10.0,South,10.4,-,N/A,,Clear,180,2013-04-03 09:53:00
3:53 AM,52.0,41.0,66,30.11,10.0,SSW,10.4,-,N/A,,Clear,200,2013-04-03 10:53:00
4:53 AM,51.1,41.0,68,30.11,10.0,SSW,10.4,-,N/A,,Clear,200,2013-04-03 11:53:00
5:53 AM,48.9,41.0,74,30.12,10.0,SSW,6.9,-,N/A,,Clear,200,2013-04-03 12:53:00
6:53 AM,50.0,42.1,74,30.13,10.0,South,9.2,-,N/A,,Clear,180,2013-04-03 13:53:00
7:53 AM,54.0,43.0,66,30.14,10.0,South,4.6,-,N/A,,Clear,190,2013-04-03 14:53:00
8:53 AM,57.9,43.0,58,30.14,10.0,SSW,15.0,-,N/A,,Clear,200,2013-04-03 15:53:00
9:53 AM,60.1,43.0,53,30.13,10.0,SSW,12.7,-,N/A,,Clear,210,2013-04-03 16:53:00
10:53 AM,63.0,43.0,48,30.12,10.0,SSW,12.7,-,N/A,,Clear,200,2013-04-03 17:53:00
11:53 AM,64.9,42.1,43,30.10,10.0,SW,11.5,-,N/A,,Clear,230,2013-04-03 18:53:00
12:53 PM,66.9,39.9,37,30.08,10.0,SW,13.8,17.3,N/A,,Clear,230,2013-04-03 19:53:00
1:53 PM,69.1,39.9,35,30.07,10.0,West,11.5,17.3,N/A,,Clear,260,2013-04-03 20:53:00
2:53 PM,69.1,37.0,31,30.06,10.0,SW,9.2,-,N/A,,Clear,220,2013-04-03 21:53:00
3:53 PM,68.0,39.9,36,30.04,10.0,Calm,Calm,-,N/A,,Clear,0,2013-04-03 22:53:00
4:53 PM,68.0,39.0,35,30.03,10.0,West,5.8,-,N/A,,Clear,270,2013-04-03 23:53:00
5:53 PM,66.0,41.0,40,30.03,10.0,WNW,4.6,-,N/A,,Clear,300,2013-04-04 00:53:00
6:53 PM,63.0,45.0,52,30.01,10.0,NE,3.5,-,N/A,,Clear,50,2013-04-04 01:53:00
7:53 PM,62.1,44.1,52,30.00,10.0,East,5.8,-,N/A,,Clear,100,2013-04-04 02:53:00
8:53 PM,57.9,44.1,60,30.00,10.0,East,8.1,-,N/A,,Clear,100,2013-04-04 03:53:00
9:53 PM,59.0,41.0,51,29.98,10.0,ESE,6.9,-,N/A,,Clear,110,2013-04-04 04:53:00
10:53 PM,57.9,39.0,49,29.96,10.0,East,9.2,-,N/A,,Clear,100,2013-04-04 05:53:00
11:53 PM,55.9,39.0,53,29.95,10.0,East,8.1,-,N/A,,Clear,90,2013-04-04 06:53:00